This is the latest recevied weather packets stored in our database for station/object N6GPM. If no packets are shown the sender has not sent any weather packets the latest 10 day(s).
| Time | Temp. | Humidity | Pressure | Rain* | Wind** | Luminosity | Snow |
|---|---|---|---|---|---|---|---|
| 1788383391 | 29.44° C | 27% | 1018.8 hPa | 0 mm | - | 906 W/m² | - |
| 1788383085 | 28.33° C | 28% | 1018.9 hPa | 0 mm | - | 916 W/m² | - |
| 1788382784 | 28.33° C | 28% | 1019 hPa | 0 mm | - | 925 W/m² | - |
| 1788382479 | 28.89° C | 28% | 1019.2 hPa | 0 mm | - | 936 W/m² | - |
| 1788382175 | 28.89° C | 27% | 1019.3 hPa | 0 mm | - | 940 W/m² | - |
| 1788381874 | 28.89° C | 27% | 1019.4 hPa | 0 mm | - | 946 W/m² | - |
| 1788381569 | 28.89° C | 26% | 1019.4 hPa | 0 mm | - | 953 W/m² | - |
| 1788381265 | 28.89° C | 27% | 1019.5 hPa | 0 mm | - | 961 W/m² | - |
| 1788380964 | 28.33° C | 28% | 1019.4 hPa | 0 mm | - | 964 W/m² | - |
| 1788380660 | 27.78° C | 29% | 1019.5 hPa | 0 mm | - | 970 W/m² | - |
| 1788380356 | 27.78° C | 29% | 1019.6 hPa | 0 mm | - | 972 W/m² | - |
| 1788380051 | 27.78° C | 30% | 1019.4 hPa | 0 mm | - | 975 W/m² | - |
| 1788379746 | 27.78° C | 29% | 1019.6 hPa | 0 mm | - | 978 W/m² | - |
| 1788379441 | 27.78° C | 29% | 1019.7 hPa | 0 mm | - | 980 W/m² | - |
| 1788379136 | 27.22° C | 30% | 1019.7 hPa | 0 mm | - | 982 W/m² | - |
| 1788378836 | 27.78° C | 31% | 1019.8 hPa | 0 mm | - | 984 W/m² | - |
| 1788378530 | 27.22° C | 31% | 1019.7 hPa | 0 mm | - | 986 W/m² | - |
| 1788378225 | 27.22° C | 31% | 1019.9 hPa | 0 mm | - | 988 W/m² | - |
| 1788377920 | 26.67° C | 32% | 1019.8 hPa | 0 mm | - | 986 W/m² | - |
| 1788377616 | 26.67° C | 31% | 1019.8 hPa | 0 mm | - | 987 W/m² | - |
| 1788377315 | 27.22° C | 33% | 1019.7 hPa | 0 mm | - | 983 W/m² | - |
| 1788377013 | 26.67° C | 32% | 1020 hPa | 0 mm | - | 981 W/m² | - |
| 1788376708 | 26.67° C | 33% | 1020 hPa | 0 mm | - | 980 W/m² | - |
| 1788376404 | 26.11° C | 35% | 1020 hPa | 0 mm | - | 974 W/m² | - |
| 1788376099 | 26.11° C | 35% | 1020.1 hPa | 0 mm | - | 972 W/m² | - |
* Rain latest hour (hover to see other rain measurements)
** Current wind speed in m/s (hover to see current wind gust speed)